World > North America > United States > Ohio

Hourly Brooklyn, OH Regional Weather

Feedback E-mail the Weather

Quick WX

Brooklyn, OH Weather Maps

°F °C°F °C
Brooklyn Weather Map
UTC Time: 7/6/2022, 22:13
Your Time:

Brooklyn, OH Regional Weather

Expires:202207062100;;802919
ASUS41 KCLE 062012
RWRCLE
OHIO REGIONAL WEATHER ROUNDUP
NATIONAL WEATHER SERVICE WILMINGTON, OH
400 PM EDT WED JUL 06 2022

NOTE: "FAIR" INDICATES FEW OR NO CLOUDS BELOW 12,000 FEET WITH NO
SIGNIFICANT WEATHER AND/OR OBSTRUCTIONS TO VISIBILITY.


OHZ009>014-019>023-028>033-038-089-062100-
   NORTHEAST OHIO
  
CITY           SKY/WX    TMP DP  RH WIND       PRES   REMARKS
CLE-HOPKINS    CLOUDY    75  66  73 NE14      29.94F                  
CLE-LAKEFRONT  CLOUDY    74  68  81 NE10      29.95F                  
CUY CO. ARPT   CLOUDY    73  66  78 N6        29.97F                  
LORAIN-ELYRIA  CLOUDY    75  65  70 NE14      29.95F                  
ASHTABULA      CLOUDY    73  65  75 VRB6      29.98F                  
AKRON-CANTON   CLOUDY    82  69  64 N6        29.94F                  
WOOSTER        RAIN      73  71  93 N6        29.95S FOG              
MANSFIELD      CLOUDY    74  71  91 N14       29.95F                  
YOUNGSTOWN     CLOUDY    75  66  73 N8        29.97S                  
$$
 

SKY/WX - Weather  TMP - Temperature  DP - Dew Point  RH - Humidity
WIND - Wind Direction/Speed PRES - Barometric Pressure VSB - Visibility
WCI - Wind Chill Index E13G22 Wind - East Wind 13 mph/Gusts of 22 mph

Trending Headlines

Brooklyn Radar Loop



Brooklyn Quick Facts


National Two Day Weather Forecast


E-mail the Brooklyn Weather Forecast

Voice your opinion or tell us about page issues...